This is the latest recevied weather packets stored in our database for station/object IN3MWE-10. If no packets are shown the sender has not sent any weather packets the latest 10 day(s).
| Time | Temp. | Humidity | Pressure | Rain* | Wind** | Luminosity | Snow |
|---|---|---|---|---|---|---|---|
| 1777362618 | 21.11° C | 43% | 979.9 hPa | - | - | - | - |
| 1777361716 | 20° C | 45% | 980 hPa | - | - | - | - |
| 1777360816 | 18.89° C | 48% | 980.4 hPa | - | - | - | - |
| 1777359916 | 18.89° C | 51% | 980.5 hPa | - | - | - | - |
| 1777359016 | 18.33° C | 54% | 980.5 hPa | - | - | - | - |
| 1777358116 | 18.33° C | 59% | 980.3 hPa | - | - | - | - |
| 1777357216 | 17.78° C | 60% | 980.3 hPa | - | - | - | - |
| 1777356316 | 17.22° C | 62% | 980.2 hPa | - | - | - | - |
| 1777355415 | 17.22° C | 62% | 980.1 hPa | - | - | - | - |
| 1777354515 | 17.22° C | 59% | 980.1 hPa | - | - | - | - |
| 1777353615 | 16.67° C | 61% | 980 hPa | - | - | - | - |
| 1777352715 | 16.67° C | 61% | 979.9 hPa | - | - | - | - |
| 1777351815 | 16.67° C | 60% | 979.9 hPa | - | - | - | - |
| 1777350915 | 16.67° C | 61% | 979.8 hPa | - | - | - | - |
| 1777350014 | 16.67° C | 59% | 979.6 hPa | - | - | - | - |
| 1777349114 | 16.67° C | 60% | 979.5 hPa | - | - | - | - |
| 1777348213 | 16.67° C | 60% | 979.6 hPa | - | - | - | - |
| 1777347313 | 17.22° C | 59% | 979.6 hPa | - | - | - | - |
| 1777346413 | 17.22° C | 56% | 979.6 hPa | - | - | - | - |
| 1777345513 | 16.67° C | 57% | 979.8 hPa | - | - | - | - |
| 1777344626 | 17.22° C | 56% | 979.7 hPa | - | - | - | - |
| 1777343726 | 17.22° C | 55% | 979.9 hPa | - | - | - | - |
| 1777342826 | 17.22° C | 55% | 979.9 hPa | - | - | - | - |
| 1777341926 | 17.22° C | 56% | 980 hPa | - | - | - | - |
| 1777341026 | 17.22° C | 56% | 980.1 hPa | - | - | - | - |
* Rain since midnight (hover to see other rain measurements)
** Current wind speed in m/s (hover to see current wind gust speed)